period_start,C,m1,H,J0,J1,J2,J3,J4,J5,JA,JB,JC,JD,JJ,JK,JN,#
2014-04-27 00:00:56,0.09,0.07,0.00,13.69,21.34,22.76,6.22,31.38,1011.43,2062.03,3475.11,3358.03,3651.40,349.57,332.72,1.37,0000 0000 0000 0000 000000
2014-04-27 00:01:57,0.08,0.07,0.00,13.64,21.34,22.72,6.23,31.46,1011.40,2062.02,3475.04,3358.02,3651.16,351.31,334.07,1.38,0000 0000 0000 0000 000000
2014-04-27 00:02:57,0.03,0.07,0.00,13.59,21.34,22.70,6.09,31.46,1011.46,2062.02,3475.00,3358.00,3651.05,348.95,331.90,1.38,0000 0000 0000 0000 000000
2014-04-27 00:03:57,0.01,0.07,0.00,13.64,21.34,22.75,6.18,31.29,1011.45,2062.04,3474.97,3358.00,3651.02,349.70,332.55,1.39,0000 0000 0000 0000 000000
2014-04-27 00:04:57,0.02,0.07,0.00,13.71,21.33,22.76,6.24,31.42,1011.39,2062.01,3474.76,3358.00,3651.00,351.88,334.52,1.40,0000 0000 0000 0000 000000
2014-04-27 00:05:58,0.02,0.07,0.00,13.80,21.33,22.81,6.36,31.33,1011.45,2062.04,3474.37,3358.00,3650.99,350.86,333.47,1.40,0000 0000 0000 0000 000000
2014-04-27 00:06:58,0.07,0.07,0.00,13.85,21.32,22.78,6.27,31.46,1011.46,2062.05,3474.14,3357.95,3650.97,350.62,333.19,1.41,0000 0000 0000 0000 000000
2014-04-27 00:07:58,0.04,0.07,0.00,13.85,21.32,22.79,6.32,31.63,1011.44,2062.03,3474.05,3357.85,3650.88,349.85,332.45,1.41,0000 0000 0000 0000 000000
2014-04-27 00:08:58,0.02,0.07,0.00,13.87,21.32,22.77,6.36,31.38,1011.47,2062.05,3474.01,3357.56,3650.58,350.36,333.14,1.42,0000 0000 0000 0000 000000
2014-04-27 00:09:58,0.13,0.07,0.00,13.84,21.32,22.80,6.19,31.54,1011.43,2062.06,3473.98,3357.39,3650.31,350.73,333.23,1.43,0000 0000 0000 0000 000000
2014-04-27 00:10:58,0.06,0.07,0.00,13.84,21.32,22.76,6.30,31.29,1011.38,2062.09,3473.95,3357.25,3650.16,350.37,332.93,1.43,0000 0000 0000 0000 000000
2014-04-27 00:11:59,0.11,0.07,0.00,13.82,21.32,22.80,6.31,31.42,1011.36,2062.09,3473.84,3357.12,3650.06,350.23,332.83,1.44,0000 0000 0000 0000 000000
2014-04-27 00:12:59,0.02,0.07,0.00,13.73,21.32,22.76,6.01,31.38,1011.40,2062.09,3473.44,3357.05,3650.03,348.70,331.33,1.44,0000 0000 0000 0000 000000
2014-04-27 00:13:59,0.05,0.07,0.00,13.65,21.32,22.79,6.16,31.46,1011.27,2062.09,3473.17,3357.02,3650.00,349.72,332.41,1.45,0000 0000 0000 0000 000000
2014-04-27 00:14:59,0.06,0.07,0.00,13.62,21.32,22.77,6.05,31.17,1011.32,2062.10,3473.06,3357.00,3649.96,348.91,331.77,1.45,0000 0000 0000 0000 000000
2014-04-27 00:16:00,0.02,0.07,0.00,13.63,21.32,22.75,6.20,31.54,1011.33,2062.09,3473.02,3356.99,3649.94,349.92,332.81,1.46,0000 0000 0000 0000 000000
2014-04-27 00:17:00,0.00,0.07,0.00,13.64,21.32,22.78,6.41,31.63,1011.35,2062.09,3473.00,3356.99,3649.83,350.54,333.02,1.47,0000 0000 0000 0000 000000
2014-04-27 00:18:00,0.01,0.07,0.00,13.69,21.32,22.73,6.11,31.50,1011.35,2062.05,3472.88,3356.96,3649.50,350.31,332.71,1.47,0000 0000 0000 0000 000000
2014-04-27 00:19:01,0.04,0.07,0.00,13.74,21.31,22.74,6.34,31.42,1011.32,2062.07,3472.50,3356.95,3649.22,349.79,332.49,1.48,0000 0000 0000 0000 000000
2014-04-27 00:20:01,0.08,0.07,0.00,13.74,21.31,22.71,6.22,31.54,1011.32,2062.08,3472.22,3356.91,3649.10,350.00,333.08,1.48,0000 0000 0000 0000 000000
2014-04-27 00:21:01,0.07,0.07,0.00,13.78,21.31,22.73,6.35,31.21,1011.31,2062.08,3472.08,3356.63,3649.03,350.61,333.18,1.49,0000 0000 0000 0000 000000
2014-04-27 00:22:01,0.08,0.07,0.00,13.85,21.30,22.78,6.32,31.42,1011.31,2062.11,3472.03,3356.27,3649.01,350.64,333.16,1.50,0000 0000 0000 0000 000000
2014-04-27 00:23:02,0.10,0.07,0.00,13.88,21.30,22.78,6.24,31.33,1011.34,2062.17,3472.01,3356.13,3649.00,350.13,332.64,1.50,0000 0000 0000 0000 000000
2014-04-27 00:24:02,0.10,0.08,0.00,13.91,21.29,22.84,6.27,31.29,1011.32,2062.24,3471.97,3356.08,3649.00,349.90,332.39,1.51,0000 0000 0000 0000 000000
2014-04-27 00:25:02,0.04,0.08,0.00,13.93,21.29,22.83,6.40,31.92,1011.32,2062.14,3471.64,3356.03,3648.93,350.62,333.05,1.51,0000 0000 0000 0000 000000
2014-04-27 00:26:02,-0.02,0.08,0.00,13.89,21.29,22.78,6.37,31.71,1011.29,2062.09,3471.33,3356.01,3648.69,349.79,332.30,1.52,0000 0000 0000 0000 000000
2014-04-27 00:27:03,0.07,0.08,0.00,13.85,21.29,22.82,6.28,31.58,1011.30,2062.07,3471.12,3356.00,3648.29,350.67,333.18,1.52,0000 0000 0000 0000 000000
2014-04-27 00:28:03,0.02,0.08,0.00,13.81,21.29,22.76,6.12,31.50,1011.37,2062.14,3471.05,3356.00,3648.13,348.94,331.49,1.53,0000 0000 0000 0000 000000
2014-04-27 00:29:03,0.09,0.08,0.00,13.75,21.29,22.73,6.13,31.63,1011.39,2062.33,3471.02,3356.00,3648.05,350.16,332.16,1.54,0000 0000 0000 0000 000000
2014-04-27 00:30:03,0.14,0.08,0.00,13.75,21.29,22.73,6.18,31.58,1011.27,2062.26,3471.00,3355.99,3648.02,349.60,332.28,1.54,0000 0000 0000 0000 000000
2014-04-27 00:31:04,-0.04,0.08,0.00,13.82,21.29,22.74,6.23,31.38,1011.29,2062.33,3470.99,3355.99,3648.00,348.70,331.35,1.55,0000 0000 0000 0000 000000
2014-04-27 00:32:04,0.08,0.08,0.00,13.86,21.29,22.77,6.19,31.33,1011.31,2062.32,3470.84,3355.87,3648.00,349.93,332.48,1.55,0000 0000 0000 0000 000000
2014-04-27 00:33:04,0.01,0.08,0.00,13.91,21.29,22.80,6.20,31.29,1011.31,2062.24,3470.41,3355.57,3648.00,350.14,332.62,1.56,0000 0000 0000 0000 000000
2014-04-27 00:34:04,0.06,0.08,0.00,13.94,21.29,22.83,6.23,31.33,1011.28,2062.16,3470.15,3355.26,3647.96,350.53,332.94,1.57,0000 0000 0000 0000 000000
2014-04-27 00:35:04,0.03,0.08,0.00,13.96,21.29,22.90,6.33,31.42,1011.25,2062.15,3470.05,3355.12,3647.72,350.05,332.46,1.57,0000 0000 0000 0000 000000
2014-04-27 00:36:04,0.08,0.08,0.00,13.94,21.29,22.90,6.22,31.29,1011.25,2062.14,3470.01,3355.06,3647.42,350.32,332.03,1.58,0000 0000 0000 0000 000000
2014-04-27 00:37:05,0.04,0.08,0.00,13.93,21.29,23.00,6.26,31.33,1011.25,2062.25,3469.98,3355.03,3647.20,350.63,333.25,1.58,0000 0000 0000 0000 000000
2014-04-27 00:38:05,0.15,0.08,0.00,13.90,21.29,23.01,6.15,31.38,1011.25,2062.32,3469.93,3355.01,3647.09,349.37,331.96,1.59,0000 0000 0000 0000 000000
2014-04-27 00:39:05,0.03,0.08,0.00,13.81,21.29,22.94,6.19,31.13,1011.26,2062.38,3469.72,3355.00,3647.03,350.37,332.93,1.60,0000 0000 0000 0000 000000
2014-04-27 00:40:05,0.06,0.08,0.00,13.74,21.29,22.88,6.19,31.50,1011.25,2062.34,3469.30,3355.00,3647.01,350.97,333.44,1.60,0000 0000 0000 0000 000000
2014-04-27 00:41:06,0.08,0.08,0.00,13.70,21.29,22.91,6.27,31.42,1011.25,2062.42,3469.12,3354.99,3647.00,349.63,332.96,1.61,0000 0000 0000 0000 000000
2014-04-27 00:42:06,0.08,0.08,0.00,13.65,21.29,22.86,6.02,31.42,1011.26,2062.53,3469.04,3354.98,3647.00,349.87,332.24,1.61,0000 0000 0000 0000 000000
2014-04-27 00:43:06,0.02,0.08,0.00,13.62,21.29,22.81,6.07,31.33,1011.26,2062.54,3469.01,3354.95,3646.99,349.57,332.76,1.62,0000 0000 0000 0000 000000
2014-04-27 00:44:06,0.05,0.08,0.00,13.63,21.28,22.83,6.18,31.38,1011.25,2062.57,3468.98,3354.84,3646.97,349.87,332.63,1.62,0000 0000 0000 0000 000000
2014-04-27 00:45:06,0.04,0.08,0.00,13.71,21.28,22.87,6.10,31.58,1011.25,2062.51,3468.95,3354.65,3646.95,349.48,332.39,1.63,0000 0000 0000 0000 000000
2014-04-27 00:46:06,0.00,0.08,0.00,13.77,21.27,22.84,6.18,31.50,1011.25,2062.40,3468.68,3354.34,3646.68,350.38,333.66,1.64,0000 0000 0000 0000 000000
2014-04-27 00:47:06,0.06,0.08,0.00,13.82,21.27,22.83,6.13,31.33,1011.25,2062.39,3468.27,3354.12,3646.28,348.91,331.52,1.64,0000 0000 0000 0000 000000
2014-04-27 00:48:07,0.12,0.08,0.00,13.85,21.27,22.86,6.18,31.46,1011.26,2062.58,3468.09,3354.06,3646.14,349.97,332.50,1.65,0000 0000 0000 0000 000000
2014-04-27 00:49:07,0.17,0.08,0.00,13.88,21.27,22.87,6.19,31.42,1011.25,2062.71,3468.03,3354.03,3646.07,349.84,332.34,1.65,0000 0000 0000 0000 000000
2014-04-27 00:50:07,0.14,0.09,0.00,13.93,21.27,22.87,6.25,31.33,1011.25,2062.74,3468.01,3354.01,3646.03,350.25,332.68,1.66,0000 0000 0000 0000 000000
2014-04-27 00:51:07,-0.01,0.09,0.00,13.98,21.27,22.94,6.12,31.46,1011.25,2062.82,3467.99,3354.00,3646.01,349.10,331.53,1.67,0000 0000 0000 0000 000000
2014-04-27 00:52:07,0.11,0.09,0.00,13.97,21.27,22.94,6.09,31.54,1011.25,2062.80,3467.76,3353.99,3645.99,348.46,330.93,1.67,0000 0000 0000 0000 000000
2014-04-27 00:53:08,0.01,0.09,0.00,13.94,21.27,22.98,6.33,31.25,1011.25,2062.84,3467.37,3353.97,3645.98,350.98,333.36,1.68,0000 0000 0000 0000 000000
2014-04-27 00:54:08,0.08,0.09,0.00,13.87,21.27,22.95,6.28,31.38,1011.25,2062.84,3467.14,3353.96,3645.91,350.30,332.79,1.68,0000 0000 0000 0000 000000
2014-04-27 00:55:08,0.03,0.09,0.00,13.78,21.27,22.90,6.15,31.13,1011.26,2062.83,3467.05,3353.82,3645.65,350.10,332.42,1.69,0000 0000 0000 0000 000000
2014-04-27 00:56:08,0.09,0.09,0.00,13.73,21.27,22.85,6.06,31.33,1011.27,2062.70,3467.01,3353.49,3645.29,349.41,332.17,1.69,0000 0000 0000 0000 000000
2014-04-27 00:57:08,0.00,0.09,0.00,13.67,21.27,22.84,6.18,31.29,1011.28,2062.67,3466.99,3353.22,3645.11,349.84,332.58,1.70,0000 0000 0000 0000 000000
2014-04-27 00:58:09,0.03,0.09,0.00,13.69,21.27,22.81,6.36,31.42,1011.32,2062.69,3466.91,3353.09,3645.04,350.52,333.14,1.71,0000 0000 0000 0000 000000
2014-04-27 00:59:09,0.04,0.09,0.00,13.75,21.27,22.82,6.06,31.42,1011.27,2062.74,3466.64,3353.03,3645.01,349.32,332.39,1.71,0000 0000 0000 0000 000000
2014-04-27 01:00:09,0.11,0.09,0.00,13.76,21.27,22.84,6.20,31.21,1011.28,2062.71,3466.28,3353.01,3644.99,349.89,332.53,1.72,0000 0000 0000 0000 000000
2014-04-27 01:01:09,0.01,0.09,0.00,13.80,21.27,22.93,6.26,31.33,1011.26,2062.74,3466.11,3353.00,3644.98,351.45,333.92,1.72,0000 0000 0000 0000 000000
2014-04-27 01:02:09,0.07,0.09,0.00,13.91,21.27,22.91,6.08,31.29,1011.25,2062.74,3466.03,3353.00,3644.88,349.00,331.52,1.73,0000 0000 0000 0000 000000
2014-04-27 01:03:10,-0.01,0.09,0.00,13.93,21.27,22.92,6.24,31.38,1011.25,2062.77,3466.00,3353.00,3644.58,349.47,332.18,1.74,0000 0000 0000 0000 000000
2014-04-27 01:04:10,0.11,0.09,0.00,13.96,21.27,22.87,6.13,31.33,1011.26,2062.79,3465.98,3352.99,3644.25,350.22,332.59,1.74,0000 0000 0000 0000 000000
2014-04-27 01:05:10,0.05,0.09,0.00,13.96,21.27,22.89,6.35,31.38,1011.28,2062.78,3465.85,3352.98,3644.10,349.84,332.44,1.75,0000 0000 0000 0000 000000
2014-04-27 01:06:10,0.01,0.09,0.00,13.98,21.27,22.94,6.29,31.17,1011.27,2062.83,3465.51,3352.91,3644.04,350.58,332.93,1.75,0000 0000 0000 0000 000000
2014-04-27 01:07:11,0.11,0.09,0.00,13.96,21.27,22.95,6.15,31.46,1011.25,2062.88,3465.24,3352.75,3644.01,350.54,332.47,1.76,0000 0000 0000 0000 000000
2014-04-27 01:08:11,0.13,0.09,0.00,13.88,21.27,22.96,6.09,31.21,1011.27,2062.85,3465.08,3352.48,3644.00,348.70,331.26,1.76,0000 0000 0000 0000 000000
2014-04-27 01:09:11,0.05,0.09,0.00,13.82,21.27,22.96,6.33,31.29,1011.25,2062.86,3465.03,3352.22,3644.00,350.58,332.88,1.77,0000 0000 0000 0000 000000
2014-04-27 01:10:11,0.05,0.09,0.00,13.81,21.27,22.88,6.22,31.33,1011.27,2062.84,3464.99,3352.08,3643.95,350.96,333.50,1.78,0000 0000 0000 0000 000000
2014-04-27 01:11:12,0.01,0.09,0.00,13.80,21.27,22.91,6.25,31.42,1011.26,2062.76,3464.85,3352.03,3643.57,350.53,333.10,1.78,0000 0000 0000 0000 000000
2014-04-27 01:12:12,0.01,0.09,0.00,13.85,21.27,22.86,6.17,31.29,1011.30,2062.75,3464.52,3352.01,3643.25,348.99,331.59,1.79,0000 0000 0000 0000 000000
2014-04-27 01:13:12,0.07,0.09,0.00,13.91,21.27,22.93,6.02,31.33,1011.26,2062.70,3464.22,3352.00,3643.11,349.81,332.30,1.79,0000 0000 0000 0000 000000
2014-04-27 01:14:12,0.04,0.09,0.00,13.96,21.27,22.97,6.33,31.54,1011.26,2062.71,3464.08,3352.00,3643.04,349.92,332.33,1.80,0000 0000 0000 0000 000000
2014-04-27 01:15:12,0.02,0.09,0.00,14.01,21.27,23.01,6.17,31.29,1011.26,2062.73,3464.03,3351.98,3643.01,350.11,332.32,1.81,0000 0000 0000 0000 000000
2014-04-27 01:16:13,0.01,0.09,0.00,14.04,21.27,23.04,6.23,31.38,1011.25,2062.76,3464.01,3351.96,3643.00,349.20,331.88,1.81,0000 0000 0000 0000 000000
2014-04-27 01:17:13,0.05,0.09,0.00,14.08,21.27,23.12,6.18,31.21,1011.26,2062.75,3463.99,3351.82,3642.98,350.44,332.87,1.82,0000 0000 0000 0000 000000
2014-04-27 01:18:13,0.02,0.09,0.00,14.08,21.27,23.20,6.06,31.58,1011.25,2062.82,3463.78,3351.56,3642.96,349.60,331.96,1.82,0000 0000 0000 0000 000000
2014-04-27 01:19:14,0.17,0.09,0.00,14.05,21.27,23.20,6.22,31.54,1011.25,2062.80,3463.38,3351.22,3642.70,349.93,332.20,1.83,0000 0000 0000 0000 000000
2014-04-27 01:20:14,0.14,0.10,0.00,13.97,21.27,23.17,6.28,31.46,1011.26,2062.78,3463.14,3351.09,3642.29,350.31,332.69,1.83,0000 0000 0000 0000 000000
2014-04-27 01:21:14,0.07,0.10,0.00,13.90,21.27,23.14,6.16,31.04,1011.25,2062.82,3463.05,3351.03,3642.12,350.36,332.82,1.84,0000 0000 0000 0000 000000
2014-04-27 01:22:14,0.08,0.10,0.00,13.85,21.27,23.01,6.27,31.42,1011.25,2062.79,3463.01,3351.01,3642.04,350.21,332.65,1.85,0000 0000 0000 0000 000000
2014-04-27 01:23:14,-0.02,0.10,0.00,13.81,21.27,23.00,6.11,31.42,1011.25,2062.70,3462.97,3351.00,3642.01,350.05,332.78,1.85,0000 0000 0000 0000 000000
2014-04-27 01:24:15,-0.06,0.10,0.00,13.83,21.27,22.99,6.28,31.58,1011.25,2062.65,3462.67,3350.98,3642.00,349.96,332.39,1.86,0000 0000 0000 0000 000000
2014-04-27 01:25:15,0.00,0.10,0.00,13.88,21.27,22.97,6.22,31.50,1011.25,2062.43,3462.26,3350.88,3641.87,350.00,332.45,1.86,0000 0000 0000 0000 000000
2014-04-27 01:26:15,-0.07,0.10,0.00,13.93,21.27,23.00,6.21,31.83,1011.25,2062.27,3462.10,3350.67,3641.48,349.82,331.90,1.87,0000 0000 0000 0000 000000
2014-04-27 01:27:15,0.02,0.10,0.00,13.96,21.28,23.07,6.30,31.63,1011.25,2062.27,3462.03,3350.42,3641.31,350.55,332.93,1.88,0000 0000 0000 0000 000000
2014-04-27 01:28:16,0.10,0.10,0.00,14.00,21.28,23.10,6.39,31.46,1011.25,2062.24,3462.00,3350.19,3641.15,350.46,332.96,1.88,0000 0000 0000 0000 000000
2014-04-27 01:29:16,0.03,0.10,0.00,13.99,21.29,23.11,6.07,31.46,1011.25,2062.44,3462.00,3350.13,3641.09,349.67,331.80,1.89,0000 0000 0000 0000 000000
2014-04-27 01:30:16,0.19,0.10,0.00,14.00,21.29,23.13,6.39,31.42,1011.25,2062.52,3461.92,3350.10,3641.04,350.56,333.06,1.89,0000 0000 0000 0000 000000
2014-04-27 01:31:16,0.07,0.10,0.00,14.01,21.29,23.15,6.16,31.08,1011.26,2062.54,3461.58,3350.05,3641.01,351.07,333.42,1.90,0000 0000 0000 0000 000000
2014-04-27 01:32:16,0.04,0.10,0.00,13.98,21.29,23.16,6.17,31.50,1011.26,2062.47,3461.23,3350.02,3641.00,350.19,332.21,1.91,0000 0000 0000 0000 000000
2014-04-27 01:33:17,0.00,0.10,0.00,13.92,21.29,23.11,6.20,31.50,1011.25,2062.45,3461.08,3350.00,3640.99,350.41,332.83,1.91,0000 0000 0000 0000 000000
2014-04-27 01:34:17,0.03,0.10,0.00,13.85,21.29,23.09,6.18,31.33,1011.25,2062.53,3461.03,3350.00,3640.84,348.85,331.43,1.92,0000 0000 0000 0000 000000
2014-04-27 01:35:17,0.10,0.10,0.00,13.82,21.29,23.09,6.23,31.25,1011.25,2062.59,3461.00,3350.00,3640.52,350.43,332.97,1.92,0000 0000 0000 0000 000000
2014-04-27 01:36:18,0.09,0.10,0.00,13.81,21.29,23.03,6.18,31.46,1011.25,2062.53,3460.96,3349.99,3640.24,350.01,332.58,1.93,0000 0000 0000 0000 000000
2014-04-27 01:37:18,-0.03,0.10,0.00,13.82,21.29,23.02,6.31,31.50,1011.25,2062.43,3460.67,3349.82,3640.10,350.48,333.16,1.93,0000 0000 0000 0000 000000
2014-04-27 01:38:18,0.03,0.10,0.00,13.84,21.29,22.97,6.38,31.38,1011.25,2062.37,3460.25,3349.59,3640.03,350.35,332.88,1.94,0000 0000 0000 0000 000000
2014-04-27 01:39:18,0.06,0.10,0.00,13.86,21.29,22.99,6.37,31.46,1011.25,2062.39,3460.09,3349.35,3640.01,350.38,333.12,1.95,0000 0000 0000 0000 000000
2014-04-27 01:40:18,0.10,0.10,0.00,13.92,21.29,23.01,6.22,31.38,1011.25,2062.41,3460.03,3349.15,3639.98,349.80,332.17,1.95,0000 0000 0000 0000 000000
2014-04-27 01:41:19,0.05,0.10,0.00,13.97,21.29,23.05,6.23,31.67,1011.23,2062.45,3460.01,3349.08,3639.99,349.60,332.01,1.96,0000 0000 0000 0000 000000
2014-04-27 01:42:19,0.03,0.10,0.00,13.99,21.29,23.10,6.24,31.38,1011.23,2062.42,3459.97,3349.03,3639.91,350.68,333.26,1.96,0000 0000 0000 0000 000000
2014-04-27 01:43:19,0.04,0.10,0.00,13.97,21.29,23.15,6.05,31.42,1011.24,2062.53,3459.87,3349.02,3639.60,348.29,330.52,1.97,0000 0000 0000 0000 000000
2014-04-27 01:44:19,0.09,0.10,0.00,14.01,21.29,23.18,6.25,31.42,1011.24,2062.53,3459.49,3349.00,3639.26,349.89,332.13,1.98,0000 0000 0000 0000 000000
2014-04-27 01:45:20,0.11,0.10,0.00,14.10,21.29,23.27,6.17,31.50,1011.24,2062.49,3459.21,3349.00,3639.11,348.36,331.00,1.98,0000 0000 0000 0000 000000
2014-04-27 01:46:20,0.03,0.10,0.00,14.06,21.29,23.28,6.27,31.38,1011.24,2062.51,3459.11,3348.99,3639.04,349.42,331.73,1.99,0000 0000 0000 0000 000000
2014-04-27 01:47:20,0.02,0.10,0.00,13.98,21.29,23.19,6.06,31.67,1011.24,2062.63,3459.05,3348.97,3639.02,349.54,331.94,1.99,0000 0000 0000 0000 000000
2014-04-27 01:48:20,0.06,0.10,0.00,13.95,21.29,23.19,6.26,31.33,1011.23,2062.57,3458.99,3348.91,3639.00,349.96,332.89,2.00,0000 0000 0000 0000 000000
2014-04-27 01:49:21,-0.02,0.10,0.00,13.92,21.29,23.14,6.27,31.38,1011.24,2062.50,3458.74,3348.58,3638.97,350.73,332.95,2.00,0000 0000 0000 0000 000000
2014-04-27 01:50:21,0.07,0.10,0.00,13.91,21.29,23.16,6.11,31.04,1011.24,2062.54,3458.40,3348.24,3638.83,350.14,332.60,2.01,0000 0000 0000 0000 000000
2014-04-27 01:51:21,0.17,0.10,0.00,13.96,21.30,23.24,6.15,31.38,1011.24,2062.53,3458.19,3348.13,3638.50,350.05,332.71,2.02,0000 0000 0000 0000 000000
2014-04-27 01:52:21,0.07,0.10,0.00,14.02,21.30,23.20,6.13,31.29,1011.24,2062.53,3458.07,3348.06,3638.20,350.46,332.16,2.02,0000 0000 0000 0000 000000
2014-04-27 01:53:21,0.06,0.11,0.00,14.04,21.30,23.17,6.27,31.13,1011.24,2062.45,3458.02,3348.03,3638.09,350.00,332.30,2.03,0000 0000 0000 0000 000000
2014-04-27 01:54:22,-0.03,0.11,0.00,14.11,21.30,23.22,6.16,31.42,1011.24,2062.40,3458.00,3348.00,3638.03,350.16,332.38,2.03,0000 0000 0000 0000 000000
2014-04-27 01:55:22,-0.01,0.10,0.00,14.15,21.31,23.21,6.18,31.33,1011.24,2062.43,3457.93,3348.00,3638.01,349.47,331.68,2.04,0000 0000 0000 0000 000000
2014-04-27 01:56:22,0.01,0.10,0.00,14.14,21.31,23.26,6.18,31.54,1011.24,2062.36,3457.63,3347.99,3638.00,350.16,332.35,2.05,0000 0000 0000 0000 000000
2014-04-27 01:57:23,0.04,0.11,0.00,14.14,21.31,23.34,6.27,31.25,1011.24,2062.45,3457.33,3347.98,3637.99,349.79,331.99,2.05,0000 0000 0000 0000 000000
2014-04-27 01:58:23,0.09,0.11,0.00,14.14,21.32,23.36,6.29,31.42,1011.24,2062.57,3457.14,3347.99,3637.96,349.33,331.55,2.06,0000 0000 0000 0000 000000
2014-04-27 01:59:23,0.09,0.11,0.00,14.10,21.32,23.28,6.24,31.38,1011.24,2062.55,3457.05,3347.92,3637.74,348.88,331.24,2.06,0000 0000 0000 0000 000000
2014-04-27 02:00:24,0.05,0.11,0.00,14.02,21.32,23.21,6.13,31.33,1011.24,2062.58,3457.01,3347.70,3637.42,348.84,331.24,2.07,0000 0000 0000 0000 000000
2014-04-27 02:01:24,0.09,0.11,0.00,13.96,21.32,23.22,6.32,31.46,1011.25,2062.53,3456.99,3347.35,3637.19,350.01,332.41,2.07,0000 0000 0000 0000 000000
2014-04-27 02:02:24,0.05,0.11,0.00,13.94,21.32,23.22,6.14,31.50,1011.26,2062.39,3456.87,3347.15,3637.08,349.54,331.77,2.08,0000 0000 0000 0000 000000
2014-04-27 02:03:24,-0.02,0.11,0.00,13.94,21.32,23.16,6.33,31.54,1011.25,2062.31,3456.45,3347.06,3637.03,350.12,332.73,2.09,0000 0000 0000 0000 000000
2014-04-27 02:04:25,0.02,0.11,0.00,13.96,21.32,23.14,6.38,31.38,1011.25,2062.31,3456.20,3347.02,3637.01,351.30,333.85,2.09,0000 0000 0000 0000 000000
2014-04-27 02:05:25,0.03,0.11,0.00,14.02,21.32,23.12,6.35,31.38,1011.26,2062.35,3456.07,3347.00,3636.98,351.16,333.44,2.10,0000 0000 0000 0000 000000
2014-04-27 02:06:25,0.08,0.11,0.00,14.08,21.32,23.18,6.16,31.33,1011.26,2062.45,3456.02,3346.99,3636.85,350.00,332.21,2.10,0000 0000 0000 0000 000000
2014-04-27 02:07:26,0.09,0.11,0.00,14.12,21.32,23.21,6.18,31.29,1011.25,2062.42,3456.00,3346.97,3636.59,350.00,331.81,2.11,0000 0000 0000 0000 000000
2014-04-27 02:08:26,0.03,0.11,0.00,14.15,21.32,23.21,6.11,31.13,1011.26,2062.46,3455.96,3346.96,3636.26,349.58,331.76,2.12,0000 0000 0000 0000 000000
2014-04-27 02:09:26,0.04,0.11,0.00,14.15,21.32,23.19,6.08,31.29,1011.26,2062.30,3455.75,3346.90,3636.10,349.64,331.76,2.12,0000 0000 0000 0000 000000
2014-04-27 02:10:26,-0.02,0.11,0.00,14.14,21.32,23.23,6.19,31.29,1011.26,2062.24,3455.36,3346.67,3636.03,349.32,331.55,2.13,0000 0000 0000 0000 000000
2014-04-27 02:11:27,0.06,0.11,0.00,14.15,21.32,23.25,6.23,31.38,1011.25,2062.23,3455.14,3346.31,3636.00,349.99,332.18,2.13,0000 0000 0000 0000 000000
2014-04-27 02:12:27,0.08,0.11,0.00,14.09,21.33,23.23,6.20,31.33,1011.25,2062.23,3455.05,3346.12,3635.98,350.85,333.05,2.14,0000 0000 0000 0000 000000
2014-04-27 02:13:27,0.04,0.11,0.00,14.01,21.33,23.22,6.44,31.33,1011.25,2062.19,3455.00,3346.06,3635.94,350.86,333.15,2.15,0000 0000 0000 0000 000000
2014-04-27 02:14:27,0.02,0.11,0.00,13.99,21.34,23.16,6.41,31.38,1011.26,2062.23,3454.92,3346.02,3635.68,350.92,333.25,2.15,0000 0000 0000 0000 000000
2014-04-27 02:15:28,0.07,0.11,0.00,13.97,21.34,23.10,6.19,31.38,1011.25,2062.29,3454.70,3346.00,3635.31,349.38,331.79,2.16,0000 0000 0000 0000 000000
2014-04-27 02:16:28,0.10,0.11,0.00,13.98,21.34,23.13,6.13,31.58,1011.26,2062.29,3454.36,3346.00,3635.13,349.55,331.95,2.16,0000 0000 0000 0000 000000
2014-04-27 02:17:28,0.06,0.11,0.00,14.08,21.34,23.16,6.33,31.17,1011.25,2062.22,3454.13,3345.98,3635.05,351.03,333.58,2.17,0000 0000 0000 0000 000000
2014-04-27 02:18:29,0.00,0.11,0.00,14.12,21.34,23.08,6.18,31.00,1011.25,2062.18,3454.05,3345.96,3635.01,350.24,332.69,2.17,0000 0000 0000 0000 000000
2014-04-27 02:19:29,-0.02,0.11,0.00,14.16,21.34,23.12,6.33,31.04,1011.26,2062.11,3454.02,3345.80,3635.00,350.45,333.13,2.18,0000 0000 0000 0000 000000
2014-04-27 02:20:29,-0.00,0.11,0.00,14.18,21.34,23.12,6.14,31.46,1011.25,2062.13,3453.97,3345.66,3634.95,349.12,331.54,2.19,0000 0000 0000 0000 000000
2014-04-27 02:21:29,0.05,0.11,0.00,14.15,21.34,23.13,6.27,31.25,1011.25,2062.12,3453.78,3345.36,3634.92,349.94,332.45,2.19,0000 0000 0000 0000 000000
2014-04-27 02:22:30,0.08,0.11,0.00,14.12,21.34,23.16,6.26,31.25,1011.26,2062.11,3453.41,3345.15,3634.52,350.71,332.89,2.20,0000 0000 0000 0000 000000
2014-04-27 02:23:30,0.12,0.11,0.00,14.12,21.34,23.13,6.18,30.96,1011.26,2062.09,3453.16,3345.07,3634.22,350.71,332.81,2.20,0000 0000 0000 0000 000000
2014-04-27 02:24:30,0.08,0.11,0.00,14.12,21.34,23.16,6.33,31.42,1011.25,2062.12,3453.05,3345.03,3634.09,350.37,332.58,2.21,0000 0000 0000 0000 000000
2014-04-27 02:25:31,0.04,0.11,0.00,14.10,21.34,23.21,6.30,31.63,1011.25,2062.08,3453.00,3345.01,3634.03,350.10,332.34,2.22,0000 0000 0000 0000 000000
2014-04-27 02:26:31,-0.01,0.11,0.00,14.01,21.35,23.06,6.07,31.42,1011.26,2062.06,3452.77,3344.99,3633.99,349.51,331.90,2.22,0000 0000 0000 0000 000000
2014-04-27 02:27:31,0.02,0.11,0.00,13.99,21.35,23.05,6.20,31.46,1011.25,2062.06,3452.40,3344.94,3633.95,350.36,332.61,2.23,0000 0000 0000 0000 000000
2014-04-27 02:28:31,0.07,0.11,0.00,13.96,21.35,23.09,6.11,31.25,1011.25,2062.03,3452.15,3344.71,3633.63,350.10,332.58,2.23,0000 0000 0000 0000 000000
2014-04-27 02:29:32,0.09,0.12,0.00,13.93,21.36,23.06,6.42,31.33,1011.25,2062.02,3452.05,3344.38,3633.26,350.72,333.11,2.24,0000 0000 0000 0000 000000
2014-04-27 02:30:32,0.10,0.12,0.00,13.93,21.36,23.02,6.03,31.21,1011.25,2062.02,3452.01,3344.20,3633.10,349.33,331.80,2.24,0000 0000 0000 0000 000000
2014-04-27 02:31:32,0.08,0.12,0.00,13.99,21.36,23.00,6.22,31.13,1011.25,2062.05,3451.98,3344.09,3633.04,350.68,333.13,2.25,0000 0000 0000 0000 000000
2014-04-27 02:32:32,0.03,0.12,0.00,14.03,21.37,23.00,6.34,31.33,1011.25,2062.03,3451.83,3344.05,3633.01,350.60,332.89,2.26,0000 0000 0000 0000 000000
2014-04-27 02:33:33,0.02,0.12,0.00,14.11,21.37,23.00,6.13,31.33,1011.25,2062.05,3451.44,3344.03,3633.00,349.62,332.12,2.26,0000 0000 0000 0000 000000
2014-04-27 02:34:33,0.05,0.12,0.00,14.13,21.37,23.06,6.14,31.33,1011.24,2062.09,3451.22,3344.01,3633.00,348.70,331.45,2.27,0000 0000 0000 0000 000000
2014-04-27 02:35:33,0.05,0.12,0.00,14.14,21.37,23.11,6.25,31.46,1011.24,2062.08,3451.09,3344.00,3632.99,350.16,332.68,2.27,0000 0000 0000 0000 000000
2014-04-27 02:36:34,0.04,0.12,0.00,14.14,21.37,23.11,6.36,31.54,1011.24,2062.07,3451.03,3344.00,3632.85,350.19,332.37,2.28,0000 0000 0000 0000 000000
2014-04-27 02:37:34,0.01,0.12,0.00,14.12,21.37,23.15,6.35,31.71,1011.22,2062.03,3451.00,3343.99,3632.55,350.59,332.38,2.29,0000 0000 0000 0000 000000